When you browse on this site, cookies collect data to enhance your experience and personalize the content and advertising you see.
Visit our Privacy Policy to learn more. By continuing to use the site, you agree to this use of cookies and data.
  • In Portugal
  • List of Countries
  • For 7 days
  • Water Temperature
  • Weather Map
  • Weather Widgets
  • user-avatar
    Login

    Hourly Weather Vratsa

    Today, 28 March, Saturday

    Time Temperature Precipitation Wind Pressure Humidity
    00:00 +4°C° 0 mm 1 mps 707 mmHg 84%
    01:00 +4°C° 0 mm 1 mps 707 mmHg 84%
    02:00 +2°C° 0 mm 0 mps 707 mmHg 87%
    03:00 +2°C° 0 mm 0 mps 707 mmHg 87%
    04:00 +3°C° 0 mm 1 mps 706 mmHg 87%
    05:00 +3°C° 0 mm 1 mps 706 mmHg 88%
    06:00 +3°C° 0 mm 1 mps 706 mmHg 88%
    07:00 +3°C° 0 mm 0 mps 706 mmHg 88%
    08:00 +4°C° 0 mm 0 mps 706 mmHg 89%
    09:00 +5°C° 0 mm 0 mps 706 mmHg 82%
    10:00 +7°C° 0 mm 1 mps 706 mmHg 75%
    11:00 +8°C° 0 mm 1 mps 706 mmHg 69%
    12:00 +9°C° 0 mm 1 mps 706 mmHg 66%
    13:00 +10°C° 0 mm 1 mps 706 mmHg 62%
    14:00 +11°C° 0 mm 1 mps 705 mmHg 59%
    15:00 +11°C° 0 mm 1 mps 705 mmHg 60%
    16:00 +10°C° 0 mm 1 mps 705 mmHg 60%
    17:00 +10°C° 0 mm 1 mps 705 mmHg 61%
    18:00 +9°C° 0 mm 1 mps 705 mmHg 66%
    19:00 +8°C° 0 mm 1 mps 705 mmHg 72%
    20:00 +6°C° 0 mm 1 mps 704 mmHg 77%
    21:00 +6°C° 0 mm 1 mps 704 mmHg 78%
    22:00 +6°C° 0 mm 1 mps 704 mmHg 78%
    23:00 +5°C° 0 mm 1 mps 704 mmHg 79%

    Tomorrow, 29 March, Sunday

    Time Temperature Precipitation Wind Pressure Humidity
    00:00 +5°C° 0 mm 1 mps 704 mmHg 79%
    01:00 +5°C° 0 mm 1 mps 704 mmHg 80%
    02:00 +5°C° 0 mm 1 mps 704 mmHg 80%
    03:00 +4°C° 0 mm 1 mps 704 mmHg 79%
    04:00 +4°C° 0 mm 1 mps 704 mmHg 79%
    05:00 +4°C° 0 mm 1 mps 704 mmHg 78%
    06:00 +5°C° 0 mm 1 mps 704 mmHg 76%
    07:00 +6°C° 0 mm 1 mps 704 mmHg 75%
    08:00 +7°C° 0 mm 1 mps 704 mmHg 73%
    09:00 +8°C° 0 mm 2 mps 704 mmHg 68%
    10:00 +9°C° 0 mm 2 mps 704 mmHg 63%
    11:00 +11°C° 0 mm 3 mps 705 mmHg 58%
    12:00 +12°C° 0.1 mm 3 mps 704 mmHg 56%
    13:00 +12°C° 0.1 mm 3 mps 704 mmHg 54%
    14:00 +13°C° 0.1 mm 4 mps 704 mmHg 53%
    15:00 +12°C° 0 mm 3 mps 703 mmHg 53%
    16:00 +12°C° 0 mm 3 mps 703 mmHg 54%
    17:00 +12°C° 0 mm 3 mps 703 mmHg 55%
    18:00 +12°C° 0 mm 2 mps 703 mmHg 60%
    19:00 +9°C° 0 mm 2 mps 703 mmHg 65%
    20:00 +9°C° 0 mm 1 mps 704 mmHg 71%
    21:00 +8°C° 0 mm 1 mps 704 mmHg 71%
    22:00 +7°C° 0 mm 2 mps 704 mmHg 72%
    23:00 +6°C° 0 mm 2 mps 704 mmHg 73%

    Day after tomorrow, 30 March, Monday

    Time Temperature Precipitation Wind Pressure Humidity
    00:00 +6°C° 0 mm 2 mps 704 mmHg 73%
    01:00 +6°C° 0 mm 2 mps 704 mmHg 73%
    02:00 +5°C° 0 mm 2 mps 704 mmHg 74%
    03:00 +5°C° 0 mm 2 mps 704 mmHg 74%
    04:00 +5°C° 0 mm 2 mps 704 mmHg 74%
    05:00 +5°C° 0 mm 2 mps 704 mmHg 74%
    06:00 +6°C° 0 mm 2 mps 704 mmHg 73%
    07:00 +7°C° 0 mm 1 mps 704 mmHg 71%
    08:00 +8°C° 0 mm 1 mps 704 mmHg 70%
    09:00 +10°C° 0 mm 1 mps 705 mmHg 64%
    10:00 +12°C° 0 mm 1 mps 705 mmHg 58%
    11:00 +13°C° 0 mm 2 mps 705 mmHg 52%
    12:00 +14°C° 0 mm 2 mps 705 mmHg 51%
    13:00 +14°C° 0 mm 1 mps 705 mmHg 49%
    14:00 +14°C° 0 mm 1 mps 704 mmHg 48%
    15:00 +14°C° 0.2 mm 2 mps 704 mmHg 50%
    16:00 +14°C° 0.2 mm 2 mps 704 mmHg 53%
    17:00 +13°C° 0.2 mm 2 mps 703 mmHg 55%
    18:00 +12°C° 0 mm 2 mps 704 mmHg 61%
    19:00 +10°C° 0 mm 2 mps 704 mmHg 68%
    20:00 +9°C° 0 mm 1 mps 704 mmHg 75%
    21:00 +8°C° 0 mm 2 mps 704 mmHg 76%
    22:00 +7°C° 0 mm 2 mps 704 mmHg 78%
    23:00 +7°C° 0 mm 2 mps 704 mmHg 79%

    31 March, Tuesday

    Time Temperature Precipitation Wind Pressure Humidity
    00:00 +7°C° 0.1 mm 2 mps 704 mmHg 80%
    01:00 +7°C° 0.1 mm 2 mps 704 mmHg 80%
    02:00 +6°C° 0.1 mm 2 mps 704 mmHg 80%
    03:00 +6°C° 0.2 mm 2 mps 705 mmHg 79%
    04:00 +6°C° 0.2 mm 2 mps 705 mmHg 78%
    05:00 +6°C° 0.2 mm 2 mps 705 mmHg 76%
    06:00 +5°C° 0.1 mm 2 mps 705 mmHg 75%
    07:00 +5°C° 0.1 mm 2 mps 705 mmHg 74%
    08:00 +5°C° 0.1 mm 2 mps 706 mmHg 73%
    09:00 +5°C° 0 mm 3 mps 706 mmHg 69%
    10:00 +5°C° 0 mm 3 mps 706 mmHg 66%
    11:00 +6°C° 0 mm 4 mps 707 mmHg 62%
    12:00 +6°C° 0.1 mm 4 mps 707 mmHg 63%
    13:00 +6°C° 0.1 mm 4 mps 706 mmHg 64%
    14:00 +5°C° 0.1 mm 4 mps 706 mmHg 65%
    15:00 +5°C° 0 mm 4 mps 706 mmHg 65%
    16:00 +5°C° 0 mm 4 mps 707 mmHg 65%
    17:00 +4°C° 0 mm 3 mps 707 mmHg 66%
    18:00 +4°C° 0 mm 3 mps 707 mmHg 67%
    19:00 +3°C° 0 mm 3 mps 707 mmHg 68%
    20:00 +2°C° 0 mm 3 mps 707 mmHg 68%
    21:00 +2°C° 0.1 mm 3 mps 708 mmHg 68%
    22:00 +3°C° 0.1 mm 2 mps 708 mmHg 67%
    23:00 +2°C° 0.1 mm 2 mps 708 mmHg 66%

    1 April, Wednesday

    Time Temperature Precipitation Wind Pressure Humidity
    00:00 +2°C° 0 mm 2 mps 708 mmHg 66%
    01:00 0°C° 0 mm 3 mps 708 mmHg 65%
    02:00 0°C° 0 mm 3 mps 708 mmHg 65%
    03:00 0°C° 0.2 mm 3 mps 708 mmHg 69%
    04:00 -1°C° 0.2 mm 2 mps 708 mmHg 73%
    05:00 -2°C° 0.2 mm 2 mps 708 mmHg 77%
    06:00 -1°C° 0.2 mm 2 mps 708 mmHg 74%
    07:00 -1°C° 0.2 mm 2 mps 708 mmHg 71%
    08:00 -1°C° 0.2 mm 2 mps 708 mmHg 67%
    09:00 -1°C° 0.3 mm 2 mps 708 mmHg 68%
    10:00 -1°C° 0.3 mm 2 mps 708 mmHg 69%
    11:00 +1°C° 0.3 mm 2 mps 708 mmHg 70%
    12:00 +1°C° 0.4 mm 2 mps 708 mmHg 71%
    13:00 +1°C° 0.4 mm 2 mps 708 mmHg 72%
    14:00 +2°C° 0.4 mm 1 mps 708 mmHg 72%
    15:00 +2°C° 0.2 mm 1 mps 708 mmHg 75%
    16:00 +2°C° 0.2 mm 1 mps 708 mmHg 79%
    17:00 +1°C° 0.2 mm 2 mps 708 mmHg 82%
    18:00 +2°C° 0.1 mm 1 mps 708 mmHg 86%
    19:00 +1°C° 0.1 mm 1 mps 708 mmHg 90%
    20:00 0°C° 0.1 mm 1 mps 708 mmHg 95%
    21:00 0°C° 0.2 mm 1 mps 709 mmHg 95%
    22:00 0°C° 0.2 mm 1 mps 709 mmHg 95%
    23:00 0°C° 0.2 mm 1 mps 710 mmHg 95%

    2 April, Thursday

    Time Temperature Precipitation Wind Pressure Humidity
    00:00 0°C° 0.1 mm 1 mps 710 mmHg 95%
    01:00 0°C° 0.1 mm 1 mps 710 mmHg 96%
    02:00 0°C° 0.1 mm 1 mps 709 mmHg 96%
    03:00 0°C° 0 mm 1 mps 709 mmHg 96%
    04:00 -2°C° 0 mm 0 mps 709 mmHg 95%
    05:00 -2°C° 0 mm 0 mps 709 mmHg 95%
    06:00 -1°C° 0 mm 0 mps 709 mmHg 91%
    07:00 -1°C° 0 mm 0 mps 709 mmHg 88%
    08:00 0°C° 0 mm 0 mps 709 mmHg 84%
    09:00 +2°C° 0 mm 1 mps 709 mmHg 80%
    10:00 +4°C° 0 mm 1 mps 709 mmHg 75%
    11:00 +5°C° 0 mm 1 mps 709 mmHg 70%
    12:00 +6°C° 0 mm 1 mps 709 mmHg 67%
    13:00 +7°C° 0 mm 1 mps 709 mmHg 64%
    14:00 +7°C° 0 mm 2 mps 709 mmHg 62%
    15:00 +7°C° 0 mm 2 mps 708 mmHg 62%
    16:00 +7°C° 0 mm 2 mps 708 mmHg 62%
    17:00 +7°C° 0 mm 2 mps 708 mmHg 63%
    18:00 +5°C° 0 mm 2 mps 708 mmHg 69%
    19:00 +5°C° 0 mm 1 mps 707 mmHg 75%
    20:00 +3°C° 0 mm 1 mps 707 mmHg 82%
    21:00 +3°C° 0 mm 1 mps 708 mmHg 83%
    22:00 +3°C° 0 mm 1 mps 708 mmHg 83%
    23:00 +2°C° 0 mm 1 mps 708 mmHg 84%
    Show more